| time (UTC) | temp F | wind direction | speed knots | gust knots | rain 1hr in | rain 24hr in | rain mn in | humidity % | barometer mb |
| 20260502183605 | 67 | 326 | 0.9 | 5.2 | 0.00 | 0.01 | 0.00 | 45 | 1011.7 |
| 20260502183104 | 66 | 319 | 1.7 | 2.6 | 0.00 | 0.01 | 0.00 | 45 | 1011.6 |
| 20260502182604 | 66 | 322 | 0.9 | 4.3 | 0.00 | 0.01 | 0.00 | 45 | 1011.7 |
| 20260502182104 | 66 | 322 | 1.7 | 4.3 | 0.00 | 0.01 | 0.00 | 45 | 1011.8 |
| 20260502181604 | 66 | 315 | 1.7 | 4.3 | 0.00 | 0.01 | 0.00 | 46 | 1011.8 |
| 20260502181104 | 65 | 66 | 0.0 | 2.6 | 0.00 | 0.01 | 0.00 | 47 | 1011.8 |
| 20260502180604 | 64 | 320 | 1.7 | 4.3 | 0.00 | 0.01 | 0.00 | 48 | 1011.8 |
| 20260502170105 | 62 | 311 | 1.7 | 5.2 | 0.00 | 0.01 | 0.00 | 53 | 1011.6 |
| 20260502164105 | 61 | 319 | 1.7 | 2.6 | 0.00 | 0.01 | 0.00 | 55 | 1011.5 |
| 20260502163604 | 61 | 310 | 0.0 | 2.6 | 0.00 | 0.01 | 0.00 | 56 | 1011.5 |
| 20260502163105 | 60 | 318 | 0.0 | 0.9 | 0.00 | 0.01 | 0.00 | 57 | 1011.5 |
| 20260502162105 | 60 | 319 | 0.0 | 1.7 | 0.00 | 0.01 | 0.00 | 57 | 1011.4 |
| 20260502161604 | 60 | 319 | 0.9 | 2.6 | 0.00 | 0.01 | 0.00 | 58 | 1011.5 |
| 20260502161104 | 59 | 318 | 0.9 | 2.6 | 0.00 | 0.01 | 0.00 | 60 | 1011.5 |
| 20260502160604 | 59 | 319 | 0.9 | 2.6 | 0.00 | 0.01 | 0.00 | 62 | 1011.5 |
| 20260502160104 | 58 | 313 | 0.9 | 4.3 | 0.00 | 0.01 | 0.00 | 64 | 1011.5 |
| 20260502152103 | 53 | 179 | 0.0 | 0.0 | 0.00 | 0.01 | 0.00 | 79 | 1011.5 |
| 20260502151604 | 52 | 179 | 0.0 | 0.0 | 0.00 | 0.01 | 0.00 | 81 | 1011.5 |
| 20260502151103 | 51 | 179 | 0.0 | 0.0 | 0.00 | 0.01 | 0.00 | 83 | 1011.5 |
| 20260502150602 | 51 | 179 | 0.0 | 0.0 | 0.00 | 0.01 | 0.00 | 84 | 1011.4 |
| 20260502140104 | 47 | 179 | 0.0 | 0.0 | 0.00 | 0.01 | 0.00 | 86 | 1011.3 |
| 20260502130603 | 47 | 179 | 0.0 | 0.0 | 0.00 | 0.01 | 0.00 | 84 | 1011.0 |
| 20260502130103 | 47 | 179 | 0.0 | 0.0 | 0.00 | 0.01 | 0.00 | 84 | 1011.0 |
| 20260502123103 | 48 | 179 | 0.0 | 0.0 | 0.00 | 0.01 | 0.00 | 84 | 1011.1 |
| 20260502122103 | 48 | 179 | 0.0 | 0.0 | 0.00 | 0.01 | 0.00 | 84 | 1011.1 |
| 20260502121104 | 48 | 179 | 0.0 | 0.0 | 0.00 | 0.01 | 0.00 | 84 | 1011.3 |
| 20260502120603 | 48 | 179 | 0.0 | 0.0 | 0.00 | 0.01 | 0.00 | 84 | 1011.3 |
| 20260502115603 | 48 | 179 | 0.0 | 0.0 | 0.00 | 0.01 | 0.00 | 84 | 1011.3 |
| 20260502114603 | 48 | 179 | 0.0 | 0.0 | 0.00 | 0.01 | 0.00 | 84 | 1011.2 |
| 20260502113603 | 49 | 179 | 0.0 | 0.0 | 0.00 | 0.01 | 0.00 | 84 | 1011.3 |
| 20260502113103 | 49 | 179 | 0.0 | 0.0 | 0.00 | 0.01 | 0.00 | 84 | 1011.3 |
| 20260502112603 | 49 | 179 | 0.0 | 0.0 | 0.00 | 0.01 | 0.00 | 84 | 1011.3 |
| 20260502112103 | 49 | 179 | 0.0 | 0.0 | 0.00 | 0.01 | 0.00 | 84 | 1011.4 |
| 20260502111603 | 49 | 179 | 0.0 | 0.0 | 0.00 | 0.01 | 0.00 | 84 | 1011.4 |
| 20260502111103 | 49 | 179 | 0.0 | 0.0 | 0.00 | 0.01 | 0.00 | 84 | 1011.4 |
| 20260502110603 | 49 | 179 | 0.0 | 0.0 | 0.00 | 0.01 | 0.00 | 84 | 1011.4 |
| 20260502110104 | 49 | 179 | 0.0 | 0.0 | 0.00 | 0.01 | 0.00 | 84 | 1011.4 |
| 20260502105603 | 49 | 179 | 0.0 | 0.0 | 0.00 | 0.01 | 0.00 | 84 | 1011.4 |
| 20260502104603 | 49 | 179 | 0.0 | 0.0 | 0.00 | 0.01 | 0.00 | 84 | 1011.5 |
| 20260502103604 | 49 | 179 | 0.0 | 0.0 | 0.00 | 0.01 | 0.00 | 84 | 1011.5 |
| 20260502103103 | 49 | 179 | 0.0 | 0.0 | 0.00 | 0.01 | 0.00 | 84 | 1011.5 |
| 20260502102603 | 49 | 179 | 0.0 | 0.0 | 0.00 | 0.01 | 0.00 | 84 | 1011.4 |
| 20260502102103 | 49 | 179 | 0.0 | 0.0 | 0.00 | 0.01 | 0.00 | 84 | 1011.5 |
| 20260502101603 | 49 | 179 | 0.0 | 0.0 | 0.00 | 0.01 | 0.00 | 84 | 1011.4 |
| 20260502101103 | 49 | 179 | 0.0 | 0.0 | 0.00 | 0.01 | 0.00 | 84 | 1011.4 |
| 20260502100603 | 50 | 179 | 0.0 | 0.0 | 0.00 | 0.01 | 0.00 | 83 | 1011.3 |
| 20260502080103 | 55 | 179 | 0.0 | 0.0 | 0.00 | 0.01 | 0.00 | 73 | 1011.8 |
| 20260502071103 | 57 | 269 | 0.0 | 0.0 | 0.00 | 0.01 | 0.00 | 67 | 1011.4 |
| 20260502065603 | 58 | 259 | 0.0 | 2.6 | 0.01 | 0.01 | 0.01 | 64 | 1010.9 |
| 20260502065103 | 58 | 305 | 0.0 | 0.9 | 0.01 | 0.01 | 0.01 | 65 | 1010.8 |
| 20260502064103 | 59 | 323 | 1.7 | 5.2 | 0.01 | 0.01 | 0.01 | 63 | 1010.5 |
| 20260502063603 | 59 | 321 | 0.0 | 2.6 | 0.00 | 0.00 | 0.00 | 60 | 1010.7 |
| 20260502063103 | 60 | 320 | 1.7 | 2.6 | 0.00 | 0.00 | 0.00 | 59 | 1010.9 |
| 20260502062603 | 60 | 234 | 0.0 | 2.6 | 0.00 | 0.00 | 0.00 | 59 | 1011.9 |
| 20260502062103 | 61 | 224 | 0.9 | 2.6 | 0.00 | 0.00 | 0.00 | 58 | 1012.7 |
| 20260502061604 | 61 | 254 | 0.9 | 5.2 | 0.00 | 0.00 | 0.00 | 59 | 1013.0 |
| 20260502061103 | 62 | 198 | 0.0 | 2.6 | 0.00 | 0.00 | 0.00 | 56 | 1012.8 |
| 20260502060603 | 62 | 190 | 0.0 | 0.9 | 0.00 | 0.00 | 0.00 | 56 | 1012.6 |
| 20260502055103 | 62 | 244 | 0.0 | 0.0 | 0.00 | 0.00 | 0.00 | 55 | 1012.5 |
| 20260502054103 | 62 | 272 | 0.0 | 0.0 | 0.00 | 0.00 | 0.00 | 57 | 1012.6 |
| 20260502053603 | 62 | 273 | 0.0 | 0.9 | 0.00 | 0.00 | 0.00 | 57 | 1012.5 |
| 20260502053103 | 62 | 277 | 0.0 | 0.0 | 0.00 | 0.00 | 0.00 | 57 | 1012.5 |
| 20260502052603 | 62 | 277 | 0.0 | 0.9 | 0.00 | 0.00 | 0.00 | 57 | 1011.9 |
| 20260502052103 | 62 | 327 | 0.0 | 0.0 | 0.00 | 0.00 | 0.00 | 57 | 1011.7 |
| 20260502051603 | 62 | 327 | 0.0 | 0.0 | 0.00 | 0.00 | 0.00 | 57 | 1011.5 |
| 20260502051103 | 62 | 327 | 0.0 | 0.0 | 0.00 | 0.00 | 0.00 | 57 | 1011.5 |
| 20260502050603 | 62 | 327 | 0.0 | 0.9 | 0.00 | 0.00 | 0.00 | 56 | 1011.4 |
| 20260502050104 | 63 | 327 | 0.0 | 0.0 | 0.00 | 0.00 | 0.00 | 56 | 1011.2 |
| 20260502045603 | 63 | 327 | 0.0 | 0.0 | 0.00 | 0.00 | 0.00 | 56 | 1011.1 |
| 20260502045104 | 63 | 327 | 0.0 | 0.0 | 0.00 | 0.00 | 0.00 | 56 | 1011.1 |
| 20260502044604 | 63 | 327 | 0.0 | 1.7 | 0.00 | 0.00 | 0.00 | 55 | 1011.0 |
| 20260502044103 | 63 | 327 | 0.0 | 2.6 | 0.00 | 0.00 | 0.00 | 55 | 1011.0 |
| 20260502043603 | 63 | 326 | 0.0 | 2.6 | 0.00 | 0.00 | 0.00 | 55 | 1011.1 |
| 20260502042603 | 64 | 325 | 0.0 | 2.6 | 0.00 | 0.00 | 0.00 | 54 | 1011.1 |
| 20260502042103 | 64 | 320 | 0.9 | 8.7 | 0.00 | 0.00 | 0.00 | 54 | 1011.1 |
| 20260502041603 | 64 | 322 | 0.0 | 1.7 | 0.00 | 0.00 | 0.00 | 54 | 1011.1 |
| 20260502041103 | 64 | 337 | 0.0 | 7.8 | 0.00 | 0.00 | 0.00 | 54 | 1011.0 |
| 20260502040604 | 64 | 332 | 1.7 | 7.0 | 0.00 | 0.00 | 0.00 | 53 | 1010.8 |
| 20260502040103 | 65 | 330 | 2.6 | 10.4 | 0.00 | 0.00 | 0.00 | 52 | 1010.8 |
| 20260502035604 | 65 | 328 | 1.7 | 7.0 | 0.00 | 0.00 | 0.00 | 52 | 1010.5 |
| 20260502035103 | 65 | 332 | 2.6 | 8.7 | 0.00 | 0.00 | 0.00 | 51 | 1010.4 |
| 20260502034103 | 66 | 319 | 0.0 | 2.6 | 0.00 | 0.00 | 0.00 | 44 | 1010.4 |
| 20260502033604 | 66 | 328 | 0.0 | 1.7 | 0.00 | 0.00 | 0.00 | 41 | 1010.4 |
| 20260502032603 | 66 | 321 | 1.7 | 7.8 | 0.00 | 0.00 | 0.00 | 37 | 1009.9 |
| 20260502031603 | 67 | 309 | 0.9 | 10.4 | 0.00 | 0.00 | 0.00 | 37 | 1009.8 |
| 20260502031103 | 67 | 331 | 1.7 | 10.4 | 0.00 | 0.00 | 0.00 | 37 | 1009.8 |
| 20260502030603 | 67 | 230 | 0.0 | 2.6 | 0.00 | 0.00 | 0.00 | 37 | 1009.8 |
| 20260502025103 | 69 | 317 | 0.9 | 12.2 | 0.00 | 0.00 | 0.00 | 42 | 1009.7 |
| 20260502024103 | 70 | 239 | 0.9 | 5.2 | 0.00 | 0.00 | 0.00 | 41 | 1009.9 |
| 20260502023103 | 71 | 318 | 1.7 | 7.8 | 0.00 | 0.00 | 0.00 | 37 | 1009.8 |
| 20260502022103 | 72 | 324 | 4.3 | 12.2 | 0.00 | 0.00 | 0.00 | 34 | 1009.7 |
| 20260502021103 | 73 | 332 | 0.0 | 0.0 | 0.00 | 0.00 | 0.00 | 22 | 1009.6 |
| 20260502020104 | 73 | 106 | 0.0 | 2.6 | 0.00 | 0.00 | 0.00 | 22 | 1009.6 |
| 20260502015103 | 74 | 222 | 0.0 | 2.6 | 0.00 | 0.00 | 0.00 | 22 | 1009.8 |
| 20260502014603 | 75 | 233 | 0.0 | 1.7 | 0.00 | 0.00 | 0.00 | 21 | 1009.7 |
| 20260502014103 | 75 | 227 | 0.9 | 5.2 | 0.00 | 0.00 | 0.00 | 21 | 1009.7 |
| 20260502013103 | 75 | 142 | 0.0 | 1.7 | 0.00 | 0.00 | 0.00 | 20 | 1009.9 |
| 20260502012103 | 76 | 141 | 3.5 | 7.0 | 0.00 | 0.00 | 0.00 | 20 | 1009.9 |
| 20260502011603 | 78 | 144 | 0.0 | 1.7 | 0.00 | 0.00 | 0.00 | 18 | 1009.9 |
| 20260502011104 | 78 | 126 | 0.0 | 0.9 | 0.00 | 0.00 | 0.00 | 18 | 1009.8 |
| 20260502005103 | 78 | 166 | 0.0 | 2.6 | 0.00 | 0.00 | 0.00 | 18 | 1009.7 |
| 20260502004603 | 78 | 197 | 0.9 | 4.3 | 0.00 | 0.00 | 0.00 | 18 | 1009.6 |
| 20260502003603 | 79 | 86 | 0.0 | 1.7 | 0.00 | 0.00 | 0.00 | 18 | 1009.8 |
| 20260502003103 | 79 | 62 | 0.9 | 4.3 | 0.00 | 0.00 | 0.00 | 18 | 1009.8 |
| 20260502002603 | 79 | 149 | 0.0 | 2.6 | 0.00 | 0.00 | 0.00 | 18 | 1010.0 |
| 20260502002103 | 79 | 109 | 0.0 | 5.2 | 0.00 | 0.00 | 0.00 | 18 | 1010.0 |
| 20260502001603 | 79 | 68 | 0.0 | 5.2 | 0.00 | 0.00 | 0.00 | 18 | 1009.9 |
| 20260502001103 | 79 | 65 | 0.0 | 0.9 | 0.00 | 0.00 | 0.00 | 18 | 1010.0 |
| 20260502000603 | 80 | 71 | 0.0 | 2.6 | 0.00 | 0.00 | 0.00 | 17 | 1010.0 |
| 20260501235603 | 79 | 233 | 0.0 | 6.1 | 0.00 | 0.00 | 0.00 | 18 | 1009.9 |
| 20260501235103 | 79 | 162 | 0.0 | 2.6 | 0.00 | 0.00 | 0.00 | 18 | 1010.1 |
| 20260501234603 | 79 | 187 | 0.0 | 1.7 | 0.00 | 0.00 | 0.00 | 18 | 1010.1 |
| 20260501234104 | 79 | 220 | 0.0 | 2.6 | 0.00 | 0.00 | 0.00 | 18 | 1010.1 |
| 20260501233603 | 79 | 113 | 0.0 | 0.9 | 0.00 | 0.00 | 0.00 | 17 | 1010.2 |
| 20260501232103 | 79 | 163 | 0.0 | 0.0 | 0.00 | 0.00 | 0.00 | 18 | 1010.5 |
| 20260501231103 | 79 | 93 | 0.9 | 2.6 | 0.00 | 0.00 | 0.00 | 17 | 1010.6 |
| 20260501230603 | 80 | 134 | 0.0 | 0.0 | 0.00 | 0.00 | 0.00 | 17 | 1010.7 |
| 20260501225603 | 81 | 127 | 0.0 | 0.0 | 0.00 | 0.00 | 0.00 | 17 | 1010.9 |
| 20260501225104 | 81 | 95 | 0.9 | 5.2 | 0.00 | 0.00 | 0.00 | 16 | 1010.9 |
| 20260501224603 | 81 | 119 | 0.0 | 2.6 | 0.00 | 0.00 | 0.00 | 15 | 1011.1 |
| 20260501224103 | 81 | 123 | 0.0 | 0.9 | 0.00 | 0.00 | 0.00 | 16 | 1011.0 |
| 20260501223603 | 81 | 121 | 0.0 | 1.7 | 0.00 | 0.00 | 0.00 | 17 | 1011.3 |
| 20260501223103 | 80 | 142 | 0.0 | 0.9 | 0.00 | 0.00 | 0.00 | 17 | 1011.4 |
| 20260501222603 | 80 | 146 | 0.0 | 0.0 | 0.00 | 0.00 | 0.00 | 17 | 1011.6 |
| 20260501222104 | 80 | 190 | 0.0 | 2.6 | 0.00 | 0.00 | 0.00 | 17 | 1011.6 |
| 20260501221604 | 80 | 163 | 0.0 | 1.7 | 0.00 | 0.00 | 0.00 | 17 | 1011.9 |
| 20260501220604 | 81 | 139 | 0.9 | 6.1 | 0.00 | 0.00 | 0.00 | 17 | 1012.1 |
| 20260501215103 | 80 | 302 | 0.0 | 2.6 | 0.00 | 0.00 | 0.00 | 19 | 1012.2 |
| 20260501214603 | 79 | 243 | 0.0 | 5.2 | 0.00 | 0.00 | 0.00 | 18 | 1012.2 |
| 20260501213604 | 78 | 324 | 0.0 | 2.6 | 0.00 | 0.00 | 0.00 | 18 | 1012.6 |
| 20260501213104 | 79 | 263 | 0.0 | 4.3 | 0.00 | 0.00 | 0.00 | 17 | 1012.7 |
| 20260501212603 | 80 | 184 | 0.9 | 7.0 | 0.00 | 0.00 | 0.00 | 17 | 1012.8 |
| 20260501212104 | 80 | 258 | 0.9 | 7.0 | 0.00 | 0.00 | 0.00 | 17 | 1012.8 |
| 20260501211603 | 80 | 217 | 0.0 | 0.9 | 0.00 | 0.00 | 0.00 | 17 | 1013.0 |
| 20260501211103 | 80 | 217 | 0.0 | 1.7 | 0.00 | 0.00 | 0.00 | 17 | 1012.9 |
| 20260501210603 | 80 | 225 | 0.9 | 2.6 | 0.00 | 0.00 | 0.00 | 18 | 1012.9 |
| 20260501210104 | 80 | 234 | 0.9 | 2.6 | 0.00 | 0.00 | 0.00 | 18 | 1013.0 |
| 20260501205603 | 80 | 142 | 0.0 | 2.6 | 0.00 | 0.00 | 0.00 | 18 | 1013.0 |
| 20260501205103 | 79 | 222 | 0.9 | 6.1 | 0.00 | 0.00 | 0.00 | 18 | 1012.9 |
| 20260501204603 | 79 | 136 | 0.9 | 4.3 | 0.00 | 0.00 | 0.00 | 18 | 1012.9 |
| 20260501204104 | 79 | 182 | 0.9 | 4.3 | 0.00 | 0.00 | 0.00 | 18 | 1013.1 |
| 20260501203603 | 79 | 68 | 0.0 | 2.6 | 0.00 | 0.00 | 0.00 | 20 | 1013.1 |
| 20260501203104 | 78 | 102 | 0.0 | 1.7 | 0.00 | 0.00 | 0.00 | 20 | 1013.2 |
| 20260501202103 | 78 | 198 | 0.0 | 4.3 | 0.00 | 0.00 | 0.00 | 18 | 1013.3 |
| 20260501201603 | 78 | 210 | 0.9 | 4.3 | 0.00 | 0.00 | 0.00 | 18 | 1013.4 |
| 20260501201103 | 78 | 258 | 0.9 | 5.2 | 0.00 | 0.00 | 0.00 | 19 | 1013.4 |
| 20260501200604 | 77 | 289 | 0.0 | 2.6 | 0.00 | 0.00 | 0.00 | 21 | 1013.4 |
| 20260501195603 | 77 | 229 | 0.9 | 2.6 | 0.00 | 0.00 | 0.00 | 20 | 1013.7 |
| 20260501194603 | 76 | 187 | 0.0 | 0.9 | 0.00 | 0.00 | 0.00 | 21 | 1013.9 |
| 20260501194103 | 76 | 175 | 0.0 | 2.6 | 0.00 | 0.00 | 0.00 | 21 | 1013.8 |
| 20260501193603 | 76 | 67 | 0.0 | 2.6 | 0.00 | 0.00 | 0.00 | 22 | 1013.9 |
| 20260501192603 | 76 | 92 | 0.0 | 2.6 | 0.00 | 0.00 | 0.00 | 23 | 1014.1 |
| 20260501191604 | 76 | 133 | 0.0 | 0.0 | 0.00 | 0.00 | 0.00 | 23 | 1014.5 |
| 20260501191103 | 75 | 133 | 0.0 | 0.0 | 0.00 | 0.00 | 0.00 | 24 | 1014.6 |
| 20260501190604 | 74 | 133 | 0.9 | 2.6 | 0.00 | 0.00 | 0.00 | 23 | 1014.7 |
| 20260501185603 | 74 | 138 | 0.0 | 2.6 | 0.00 | 0.00 | 0.00 | 23 | 1014.9 |
| 20260501185103 | 74 | 279 | 0.9 | 2.6 | 0.00 | 0.00 | 0.00 | 24 | 1014.9 |
| 20260501184604 | 73 | 239 | 0.0 | 2.6 | 0.00 | 0.00 | 0.00 | 25 | 1015.0 |
| 20260501184103 | 73 | 227 | 0.0 | 1.7 | 0.00 | 0.00 | 0.00 | 25 | 1015.1 |